Regional Weather Roundup
Issued by NWS

Home | Current Version | Previous Version | Graphics & Text | Print | Product List | Glossary On
Versions: 1 2 3 4 5 6 7 8 9 10 11 12 13 14 15 16 17 18 19 20 21 22 23 24 25 26 27 28 29 30 31 32 33 34 35 36 37 38 39 40 41 42 43 44 45 46 47 48 49 50
000
ASUS43 KFSD 071410
RWRSD

WEATHER ROUNDUP FOR SOUTH DAKOTA
NATIONAL WEATHER SERVICE SIOUX FALLS SD
800 AM CST WED DEC 07 2016

NOTE: "FAIR" INDICATES FEW OR NO CLOUDS BELOW 12,000 FEET WITH NO
SIGNIFICANT WEATHER AND/OR OBSTRUCTIONS TO VISIBILITY.


SDZ001>005-009-010-012>017-071500-
NORTHWEST AND NORTH CENTRAL SOUTH DAKOTA

CITY           SKY/WX    TMP DP  RH WIND       PRES   REMARKS
BUFFALO          N/A      2  -5  72 NW29      30.19R WCI -23
FAITH            N/A      1  -4  79 NW23      30.24R WCI -22
MOBRIDGE       CLOUDY     9   0  67 NW29G39   30.18R WCI -13
$$

SDZ012>016-024>037-041>051-057-063-072>074-071500-
SOUTHWEST AND SOUTH CENTRAL SOUTH DAKOTA

CITY           SKY/WX    TMP DP  RH WIND       PRES   REMARKS
RAPID CTY ARPT CLOUDY     2  -5  72 NW15      30.24R WCI -17
PIERRE         CLOUDY     8   2  76 NW14G25   30.24R WCI  -8
CUSTER         CLOUDY    -2  -8  76 CALM      30.01R
ELLSWORTH AFB  CLOUDY     4  -5  64 NW20      30.23R WCI -16
PHILIP         CLEAR      1  -6  72 NW16G25   30.29R WCI -19
PINE RIDGE     CLOUDY     4  -2  76 CALM      30.25R
SPEARFISH      CLOUDY     1  -8  66 NW12G18   30.24R WCI -15
WINNER         FAIR       6  -3  66 W22G28    30.29R WCI -15
$$

SDZ004>011-016>023-039-040-071500-
NORTHEAST SOUTH DAKOTA

CITY           SKY/WX    TMP DP  RH WIND       PRES   REMARKS
ABERDEEN       CLOUDY     9   0  67 W23G31    30.15R WCI -11
WATERTOWN      CLOUDY     7   2  80 W22G31    30.07R WCI -14
BROOKINGS      CLEAR      7   2  80 W17       30.11R WCI -12
SISSETON         N/A     11   4  73 NW26G33   30.05R WCI -10
$$

SDZ017-020-022-023-036>040-048>070-071500-
SOUTHEAST SOUTH DAKOTA

CITY           SKY/WX    TMP DP  RH WIND       PRES   REMARKS
SIOUX FALLS    PTCLDY     9   3  77 W15G23    30.19R WCI  -8
HURON          CLOUDY    10   3  73 NW22G29   30.20R WCI -10
CHAMBERLAIN    CLOUDY     7   0  72 NW20G30   30.27R WCI -12
MITCHELL       CLOUDY    12   4  70 W17       30.25R WCI  -5
YANKTON        PTCLDY   N/A N/A N/A W20       30.23S
$$

ABBREVIATIONS USED IN REMARKS
   TC - TEMPERATURE IN CELSIUS
  WCI - WIND CHILL INDEX
   HX - HEAT INDEX
  VSB - VISIBILITY





USA.gov is the U.S. government's official web portal to all federal, state and local government web resources and services.